Tracking 27112 objects as of 27-Mar-2023
HD Live streaming from Space Station
objects crossing your sky now

STARLINK-2604

Track STARLINK-2604 now!
10-day predictions
STARLINK-2604 is classified as:


NORAD ID: 48374
Int'l Code: 2021-038X
Perigee: 553.6 km
Apogee: 555.3 km
Inclination: 53.1 °
Period: 95.6 minutes
Semi major axis: 6925 km
RCS: Unknown
Launch date: May 4, 2021
Source: United States (US)
Launch site: AIR FORCE EASTERN TEST RANGE (AFETR)
Your satellite tracking list
Your tracking list is empty




NASA's NSSDC Master Catalog

Two Line Element Set (TLE):
1 48374U 21038X   23085.88256434 -.00006645  00000-0 -42800-3 0  9998
2 48374  53.0514 154.5650 0001290 114.1502 245.9622 15.06368054104562
Source of the keplerian elements: AFSPC